Weather History for Sheboygan, WI

Change the Weather History Date:

Wednesday, November 13, 2013

  Actual Average Record
Temperature  
Mean Temperature 30 °F -  
Max Temperature 42 °F 44 °F 66 °F (1999)
Min Temperature 19 °F 30 °F 5 °F (1986)
Degree Days  
Heating Degree Days 34    
Moisture  
Dew Point 15 °F    
Average Humidity 52    
Maximum Humidity 74    
Minimum Humidity 34    
Precipitation  
Precipitation 0.00 in - - ()
Sea Level Pressure  
Sea Level Pressure 30.25 in    
Wind  
Wind Speed 14 mph (SW)    
Max Wind Speed 24 mph    
Max Gust Speed 33 mph    
Visibility 10 miles    
Events      
Averages and records for this station are not official NWS values.
T = Trace of Precipitation, MM = Missing Value Source: NWS Daily Summary

Daily Weather History Graph

Daily Weather History Graph

Search for Another Location

Airport:

Trip Planner

Search our weather history database for the weather conditions in past years. The results will help you decide how hot, cold, wet, or windy it might be!

Date:

Astronomy

Nov. 13, 2013 Rise Set
Actual Time 6:43 AM CST 4:27 PM CST
Civil Twilight 6:12 AM CST 4:58 PM CST
Nautical Twilight 5:37 AM CST 5:33 PM CST
Astronomical Twilight 5:04 AM CST 6:06 PM CST
Moon 2:21 PM CST (11/13) 2:28 AM CST (11/13)
Length of Visible Light 10h 45m
Length of Day
9h 43m
Waxing Gibbous, 85% of the Moon is Illuminated
Nov 13
Waxing Gibbous
Nov 17
Full
Nov 25
Last Quarter
Dec 2
New
Dec 9
First Quarter

Hourly Weather History & Observations

Time (CST) Temp. Windchill Dew Point Humidity Pressure Visibility Wind Dir Wind Speed Gust Speed Precip Events Conditions
12:53 AM 21.0 °F 10.6 °F 12.9 °F 71% 30.53 in 10.0 mi West 9.2 mph - N/A   Clear
1:53 AM 21.0 °F 10.6 °F 12.0 °F 68% 30.52 in 10.0 mi West 9.2 mph - N/A   Clear
2:53 AM 21.0 °F 8.6 °F 10.9 °F 65% 30.50 in 10.0 mi West 12.7 mph - N/A   Clear
3:53 AM 19.9 °F 10.1 °F 12.0 °F 71% 30.48 in 10.0 mi West 8.1 mph - N/A   Clear
4:53 AM 21.0 °F 10.6 °F 12.9 °F 71% 30.46 in 10.0 mi WSW 9.2 mph - N/A   Clear
5:53 AM 21.0 °F 10.6 °F 14.0 °F 74% 30.44 in 10.0 mi SW 9.2 mph - N/A   Clear
6:53 AM 21.0 °F 9.3 °F 14.0 °F 74% 30.43 in 10.0 mi SW 11.5 mph - N/A   Clear
7:53 AM 24.1 °F 12.5 °F 15.1 °F 69% 30.40 in 10.0 mi SW 12.7 mph - N/A   Clear
8:53 AM 28.0 °F 16.5 °F 14.0 °F 56% 30.37 in 10.0 mi SW 15.0 mph 21.9 mph N/A   Clear
9:53 AM 30.9 °F 19.4 °F 15.1 °F 52% 30.34 in 10.0 mi SW 17.3 mph 24.2 mph N/A   Clear
10:53 AM 35.1 °F 23.8 °F 14.0 °F 42% 30.30 in 10.0 mi SW 20.7 mph 24.2 mph N/A   Clear
11:53 AM 37.0 °F 26.7 °F 14.0 °F 39% 30.25 in 10.0 mi SW 19.6 mph 27.6 mph N/A   Clear
12:53 PM 39.9 °F 30.2 °F 15.1 °F 36% 30.21 in 10.0 mi SW 20.7 mph 33.4 mph N/A   Clear
1:53 PM 42.1 °F 32.8 °F 15.1 °F 34% 30.17 in 10.0 mi SW 21.9 mph 28.8 mph N/A   Clear
2:53 PM 41.0 °F 31.9 °F 16.0 °F 36% 30.12 in 10.0 mi SW 19.6 mph 33.4 mph N/A   Clear
3:53 PM 39.0 °F 28.5 °F 18.0 °F 43% 30.09 in 10.0 mi SW 23.0 mph - N/A   Clear
4:53 PM 37.0 °F 25.9 °F 16.0 °F 42% 30.09 in 10.0 mi SW 23.0 mph 28.8 mph N/A   Clear
5:53 PM 37.0 °F 27.4 °F 17.1 °F 44% 30.08 in 10.0 mi SW 17.3 mph 31.1 mph N/A   Clear
6:53 PM 36.0 °F 25.3 °F 18.0 °F 48% 30.06 in 10.0 mi SW 19.6 mph 29.9 mph N/A   Clear
7:53 PM 37.0 °F 27.4 °F 18.0 °F 46% 30.05 in 10.0 mi SW 17.3 mph 27.6 mph N/A   Clear
8:53 PM 37.9 °F 28.2 °F 17.1 °F 43% 30.04 in 10.0 mi SW 18.4 mph 29.9 mph N/A   Clear
9:53 PM 37.9 °F 26.8 °F 16.0 °F 41% 30.03 in 10.0 mi WSW 24.2 mph 32.2 mph N/A   Clear
10:53 PM 37.0 °F 25.6 °F 17.1 °F 44% 30.02 in 10.0 mi WSW 24.2 mph 29.9 mph N/A   Clear
11:53 PM 36.0 °F 24.7 °F 17.1 °F 46% 30.01 in 10.0 mi SW 21.9 mph 27.6 mph N/A   Clear